• In Hungary
  • List of Countries
  • For 7 days
  • Water Temperature
  • Satellite Maps
  • Weather Map
  • News
  • Weather Widgets
  • user-avatar
    Login

    Hourly Weather Novye Peski

    Today, 15 August, Wednesday

    Time Temperature Precipitation Wind Pressure Humidity
    00:00 +19°C° 0 mm 1 mps 751 mmHg 73%
    01:00 +18°C° 0 mm 1 mps 751 mmHg 74%
    02:00 +18°C° 0 mm 1 mps 752 mmHg 76%
    03:00 +15°C° 0 mm 0 mps 752 mmHg 76%
    04:00 +16°C° 0 mm 0 mps 752 mmHg 76%
    05:00 +16°C° 0 mm 0 mps 752 mmHg 75%
    06:00 +17°C° 0 mm 0 mps 752 mmHg 75%
    07:00 +19°C° 0 mm 0 mps 753 mmHg 68%
    08:00 +23°C° 0 mm 1 mps 753 mmHg 60%
    09:00 +23°C° 0 mm 0 mps 753 mmHg 52%
    10:00 +24°C° 0 mm 0 mps 753 mmHg 48%
    11:00 +25°C° 0 mm 0 mps 753 mmHg 43%
    12:00 +26°C° 0 mm 0 mps 753 mmHg 38%
    13:00 +28°C° 0 mm 1 mps 753 mmHg 37%
    14:00 +29°C° 0 mm 1 mps 753 mmHg 35%
    15:00 +29°C° 0 mm 1 mps 752 mmHg 34%
    16:00 +29°C° 0 mm 1 mps 752 mmHg 37%
    17:00 +28°C° 0 mm 1 mps 752 mmHg 40%
    18:00 +28°C° 0 mm 1 mps 752 mmHg 43%
    19:00 +26°C° 0 mm 1 mps 752 mmHg 45%
    20:00 +25°C° 0 mm 1 mps 752 mmHg 47%
    21:00 +23°C° 0 mm 1 mps 752 mmHg 49%
    22:00 +22°C° 0 mm 1 mps 752 mmHg 50%
    23:00 +21°C° 0 mm 2 mps 752 mmHg 50%

    Tomorrow, 16 August, Thursday

    Time Temperature Precipitation Wind Pressure Humidity
    00:00 +21°C° 0 mm 2 mps 752 mmHg 51%
    01:00 +20°C° 0 mm 2 mps 752 mmHg 51%
    02:00 +20°C° 0 mm 2 mps 752 mmHg 52%
    03:00 +19°C° 0 mm 2 mps 752 mmHg 52%
    04:00 +19°C° 0 mm 2 mps 752 mmHg 54%
    05:00 +19°C° 0 mm 2 mps 752 mmHg 56%
    06:00 +19°C° 0 mm 2 mps 752 mmHg 57%
    07:00 +22°C° 0 mm 3 mps 752 mmHg 52%
    08:00 +25°C° 0 mm 3 mps 752 mmHg 48%
    09:00 +27°C° 0 mm 4 mps 752 mmHg 43%
    10:00 +28°C° 0 mm 4 mps 752 mmHg 40%
    11:00 +30°C° 0 mm 3 mps 752 mmHg 38%
    12:00 +31°C° 0 mm 3 mps 752 mmHg 36%
    13:00 +31°C° 0 mm 3 mps 752 mmHg 35%
    14:00 +31°C° 0 mm 2 mps 751 mmHg 34%
    15:00 +32°C° 0 mm 2 mps 751 mmHg 33%
    16:00 +31°C° 0 mm 2 mps 751 mmHg 36%
    17:00 +30°C° 0 mm 1 mps 751 mmHg 40%
    18:00 +30°C° 0 mm 1 mps 750 mmHg 43%
    19:00 +28°C° 0 mm 1 mps 750 mmHg 45%
    20:00 +26°C° 0 mm 1 mps 751 mmHg 47%
    21:00 +23°C° 0 mm 0 mps 751 mmHg 49%
    22:00 +24°C° 0 mm 1 mps 751 mmHg 50%
    23:00 +24°C° 0 mm 1 mps 750 mmHg 50%

    Day after tomorrow, 17 August, Friday

    Time Temperature Precipitation Wind Pressure Humidity
    00:00 +23°C° 0 mm 1 mps 750 mmHg 51%
    01:00 +23°C° 0 mm 1 mps 750 mmHg 52%
    02:00 +23°C° 0 mm 1 mps 750 mmHg 52%
    03:00 +22°C° 0 mm 1 mps 750 mmHg 53%
    04:00 +22°C° 0 mm 1 mps 750 mmHg 54%
    05:00 +22°C° 0 mm 1 mps 750 mmHg 56%
    06:00 +22°C° 0 mm 1 mps 750 mmHg 57%
    07:00 +24°C° 0 mm 1 mps 750 mmHg 55%
    08:00 +25°C° 0 mm 1 mps 751 mmHg 53%
    09:00 +27°C° 0 mm 2 mps 751 mmHg 51%
    10:00 +27°C° 0 mm 2 mps 751 mmHg 49%
    11:00 +28°C° 0 mm 2 mps 751 mmHg 48%
    12:00 +29°C° 0 mm 2 mps 751 mmHg 46%
    13:00 +29°C° 0 mm 3 mps 751 mmHg 48%
    14:00 +29°C° 0 mm 3 mps 750 mmHg 50%
    15:00 +28°C° 0 mm 4 mps 750 mmHg 52%
    16:00 +27°C° 0 mm 4 mps 750 mmHg 56%
    17:00 +27°C° 0 mm 4 mps 750 mmHg 61%
    18:00 +26°C° 0 mm 4 mps 750 mmHg 66%
    19:00 +23°C° 0 mm 4 mps 751 mmHg 71%
    20:00 +22°C° 0 mm 4 mps 751 mmHg 76%
    21:00 +21°C° 0 mm 4 mps 751 mmHg 81%
    22:00 +20°C° 0 mm 4 mps 751 mmHg 82%
    23:00 +19°C° 0 mm 4 mps 751 mmHg 83%

    18 August, Saturday

    Time Temperature Precipitation Wind Pressure Humidity
    00:00 +18°C° 0 mm 4 mps 751 mmHg 84%
    01:00 +18°C° 0 mm 4 mps 751 mmHg 84%
    02:00 +17°C° 0 mm 4 mps 752 mmHg 83%
    03:00 +17°C° 0 mm 4 mps 752 mmHg 82%
    04:00 +15°C° 0 mm 4 mps 752 mmHg 83%
    05:00 +15°C° 0 mm 4 mps 752 mmHg 83%
    06:00 +15°C° 0 mm 5 mps 752 mmHg 83%
    07:00 +17°C° 0 mm 5 mps 753 mmHg 74%
    08:00 +19°C° 0 mm 6 mps 753 mmHg 64%
    09:00 +21°C° 0 mm 6 mps 753 mmHg 54%
    10:00 +22°C° 0 mm 6 mps 753 mmHg 50%
    11:00 +23°C° 0 mm 6 mps 753 mmHg 45%
    12:00 +23°C° 0 mm 6 mps 753 mmHg 41%
    13:00 +24°C° 0 mm 6 mps 753 mmHg 41%
    14:00 +24°C° 0 mm 6 mps 753 mmHg 41%
    15:00 +24°C° 0 mm 6 mps 753 mmHg 40%
    16:00 +23°C° 0 mm 5 mps 753 mmHg 44%
    17:00 +23°C° 0 mm 5 mps 753 mmHg 48%
    18:00 +22°C° 0 mm 4 mps 753 mmHg 52%
    19:00 +20°C° 0 mm 4 mps 753 mmHg 57%
    20:00 +18°C° 0 mm 4 mps 754 mmHg 62%
    21:00 +17°C° 0 mm 3 mps 754 mmHg 67%
    22:00 +16°C° 0 mm 3 mps 754 mmHg 69%
    23:00 +14°C° 0 mm 3 mps 754 mmHg 70%

    19 August, Sunday

    Time Temperature Precipitation Wind Pressure Humidity
    00:00 +14°C° 0 mm 3 mps 754 mmHg 72%
    01:00 +13°C° 0 mm 3 mps 754 mmHg 74%
    02:00 +12°C° 0 mm 3 mps 754 mmHg 75%
    03:00 +12°C° 0 mm 3 mps 754 mmHg 76%
    04:00 +12°C° 0 mm 3 mps 754 mmHg 77%
    05:00 +12°C° 0 mm 3 mps 755 mmHg 78%
    06:00 +12°C° 0 mm 3 mps 755 mmHg 78%
    07:00 +14°C° 0 mm 4 mps 755 mmHg 71%
    08:00 +15°C° 0 mm 4 mps 755 mmHg 64%
    09:00 +17°C° 0 mm 5 mps 755 mmHg 57%
    10:00 +19°C° 0 mm 5 mps 755 mmHg 52%
    11:00 +20°C° 0 mm 5 mps 754 mmHg 47%
    12:00 +21°C° 0 mm 5 mps 754 mmHg 42%
    13:00 +22°C° 0 mm 5 mps 754 mmHg 41%
    14:00 +22°C° 0 mm 5 mps 754 mmHg 41%
    15:00 +23°C° 0 mm 5 mps 753 mmHg 40%
    16:00 +22°C° 0 mm 4 mps 753 mmHg 44%
    17:00 +21°C° 0 mm 3 mps 753 mmHg 48%
    18:00 +21°C° 0 mm 3 mps 753 mmHg 52%
    19:00 +19°C° 0 mm 3 mps 753 mmHg 57%
    20:00 +17°C° 0 mm 2 mps 753 mmHg 61%
    21:00 +15°C° 0 mm 2 mps 753 mmHg 66%
    22:00 +15°C° 0 mm 2 mps 753 mmHg 68%
    23:00 +14°C° 0 mm 2 mps 753 mmHg 70%

    20 August, Monday

    Time Temperature Precipitation Wind Pressure Humidity
    00:00 +14°C° 0 mm 2 mps 753 mmHg 72%
    01:00 +13°C° 0 mm 2 mps 753 mmHg 74%
    02:00 +13°C° 0 mm 2 mps 753 mmHg 76%
    03:00 +12°C° 0 mm 1 mps 753 mmHg 78%
    04:00 +13°C° 0 mm 1 mps 753 mmHg 79%
    05:00 +13°C° 0 mm 1 mps 753 mmHg 79%
    06:00 +13°C° 0 mm 1 mps 753 mmHg 79%
    07:00 +15°C° 0 mm 1 mps 753 mmHg 71%
    08:00 +18°C° 0 mm 1 mps 753 mmHg 64%
    09:00 +20°C° 0 mm 1 mps 753 mmHg 56%
    10:00 +21°C° 0 mm 1 mps 753 mmHg 50%
    11:00 +23°C° 0 mm 1 mps 753 mmHg 45%
    12:00 +24°C° 0 mm 1 mps 753 mmHg 39%
    13:00 +25°C° 0 mm 1 mps 753 mmHg 37%
    14:00 +23°C° 0 mm 0 mps 753 mmHg 35%
    15:00 +24°C° 0 mm 0 mps 752 mmHg 33%
    16:00 +23°C° 0 mm 0 mps 752 mmHg 36%
    17:00 +23°C° 0 mm 0 mps 752 mmHg 39%
    18:00 +22°C° 0 mm 0 mps 752 mmHg 43%
    19:00 +20°C° 0 mm 0 mps 752 mmHg 45%
    20:00 +18°C° 0 mm 0 mps 752 mmHg 47%
    21:00 +17°C° 0 mm 0 mps 752 mmHg 49%
    22:00 +18°C° 0 mm 1 mps 752 mmHg 51%
    23:00 +18°C° 0 mm 1 mps 752 mmHg 52%
    Show more